Погода в Воронине

Россия / Томская область     56°33′23″N   85°15′15″E
темп.,
°C
ветер,
м/с
пор.,
м/с
влажн.,
%
обл.,
%
осадки,
мм/ч
давл.,
гПа
погр.,
м
4 августа, ср
ср401:00+14ю119522 1.5 100611
04:00+14ю1297100 0.0 100618
07:00+15юз119799 0.0 100758
10:00+19з2282100 0.1 1007400
13:00+22ссз1265100 0.9 10071058
16:00+23зюз115714 0.4 10061255
19:00+20зюз11865 2.1 100657
22:00+15в00925 0.9 100611
5 августа, чт
чт501:00+14ю009534 1.0 100611
04:00+13зюз119768 0.0 100611
07:00+14юз1197100 0.0 100633
10:00+19юз1179100 0.0 1005446
13:00+23зюз225386 0.0 10051316
16:00+25з2247100 0.0 10041809
19:00+21св247565 0.3 1004211
22:00+16в229348 0.4 100520
6 августа, пт
пт601:00+15в119339 0.6 100412
04:00+14в11967 0.3 100514
07:00+15юв12955 0.3 100672
10:00+21вюв017186 0.0 1006572
13:00+21вюв118284 3.3 1006481
16:00+22вюв127566 2.6 1006766
19:00+21вюв018952 5.3 100773
22:00+17в119391 0.0 100811
7 августа, сб
сб701:00+15вюв119581 0.0 100811
04:00+15вюв119553 0.0 100910
07:00+15юв11955 0.0 101027
10:00+21юв117395 0.0 1011410
13:00+26юв135116 0.0 10111502
16:00+27вюв234477 0.0 10102225
19:00+24юв136627 0.0 1011111
22:00+18ююв118947 0.7 101212
8 августа, вс
вс801:00+17всв11926 0.8 101211
04:00+16вюв229414 0.0 101219
07:00+17в22918 0.0 101348
10:00+24вюв236234 0.0 1013430
13:00+27вюв2343100 0.0 10121457
16:00+29вюв253529 0.0 10122881
19:00+26в24585 0.0 1012122
22:00+19в23735 0.0 101248